| time (UTC) | temp F | wind direction | speed knots | gust knots | rain 1hr in | rain 24hr in | rain mn in | humidity % | barometer mb |
| 20260509121031 | 62 | 166 | 1.7 | 6.1 | 0.00 | 0.00 | 0.00 | 27 | 1023.9 |
| 20260509120025 | 61 | 197 | 2.6 | 7.0 | 0.00 | 0.00 | 0.00 | 28 | 1024.0 |
| 20260509115021 | 60 | 222 | 3.5 | 7.0 | 0.00 | 0.00 | 0.00 | 27 | 1024.2 |
| 20260509114015 | 61 | 212 | 3.5 | 6.1 | 0.00 | 0.00 | 0.00 | 27 | 1024.3 |
| 20260509113031 | 61 | 193 | 2.6 | 7.0 | 0.00 | 0.00 | 0.00 | 27 | 1024.4 |
| 20260509112027 | 60 | 191 | 2.6 | 7.8 | 0.00 | 0.00 | 0.00 | 27 | 1024.5 |
| 20260509111023 | 59 | 206 | 4.3 | 7.8 | 0.00 | 0.00 | 0.00 | 27 | 1024.6 |
| 20260509110018 | 60 | 199 | 2.6 | 6.1 | 0.00 | 0.00 | 0.00 | 28 | 1024.8 |
| 20260509105033 | 59 | 202 | 3.5 | 6.1 | 0.00 | 0.00 | 0.00 | 28 | 1024.8 |
| 20260509104029 | 59 | 172 | 3.5 | 7.0 | 0.00 | 0.00 | 0.00 | 27 | 1025.0 |
| 20260509103023 | 59 | 191 | 3.5 | 7.0 | 0.00 | 0.00 | 0.00 | 29 | 1025.2 |
| 20260509102018 | 59 | 197 | 4.3 | 7.8 | 0.00 | 0.00 | 0.00 | 28 | 1025.1 |
| 20260509101033 | 59 | 179 | 2.6 | 7.8 | 0.00 | 0.00 | 0.00 | 29 | 1025.2 |
| 20260509100109 | 59 | 165 | 2.6 | 6.1 | 0.00 | 0.00 | 0.00 | 29 | 1025.3 |
| 20260509095104 | 59 | 191 | 2.6 | 7.8 | 0.00 | 0.00 | 0.00 | 29 | 1025.3 |
| 20260509094019 | 58 | 181 | 2.6 | 6.1 | 0.00 | 0.00 | 0.00 | 29 | 1025.4 |
| 20260509093015 | 58 | 183 | 3.5 | 8.7 | 0.00 | 0.00 | 0.00 | 31 | 1025.6 |
| 20260509092031 | 57 | 169 | 2.6 | 7.0 | 0.00 | 0.00 | 0.00 | 30 | 1025.7 |
| 20260509091026 | 59 | 186 | 2.6 | 6.1 | 0.00 | 0.00 | 0.00 | 30 | 1025.8 |
| 20260509090022 | 58 | 179 | 1.7 | 5.2 | 0.00 | 0.00 | 0.00 | 31 | 1025.8 |
| 20260509085016 | 57 | 180 | 2.6 | 7.8 | 0.00 | 0.00 | 0.00 | 30 | 1026.0 |
| 20260509084031 | 56 | 205 | 3.5 | 7.0 | 0.00 | 0.00 | 0.00 | 29 | 1026.1 |
| 20260509083027 | 56 | 209 | 3.5 | 7.8 | 0.00 | 0.00 | 0.00 | 28 | 1026.2 |
| 20260509082026 | 55 | 181 | 3.5 | 8.7 | 0.00 | 0.00 | 0.00 | 27 | 1026.0 |
| 20260509081017 | 55 | 203 | 3.5 | 9.6 | 0.00 | 0.00 | 0.00 | 28 | 1026.3 |
| 20260509080033 | 54 | 217 | 3.5 | 7.0 | 0.00 | 0.00 | 0.00 | 31 | 1026.4 |
| 20260509075028 | 54 | 213 | 3.5 | 7.8 | 0.00 | 0.00 | 0.00 | 32 | 1026.5 |
| 20260509074043 | 54 | 211 | 3.5 | 8.7 | 0.00 | 0.00 | 0.00 | 32 | 1026.7 |
| 20260509073019 | 53 | 193 | 2.6 | 7.0 | 0.00 | 0.00 | 0.00 | 31 | 1026.6 |
| 20260509072034 | 54 | 198 | 2.6 | 5.2 | 0.00 | 0.00 | 0.00 | 30 | 1026.7 |
| 20260509071030 | 53 | 198 | 2.6 | 7.0 | 0.00 | 0.00 | 0.00 | 30 | 1026.7 |
| 20260509070025 | 53 | 193 | 1.7 | 3.5 | 0.00 | 0.00 | 0.00 | 32 | 1026.6 |
| 20260509065059 | 52 | 188 | 1.7 | 5.2 | 0.00 | 0.00 | 0.00 | 32 | 1026.7 |
| 20260509064034 | 52 | 204 | 2.6 | 5.2 | 0.00 | 0.00 | 0.00 | 31 | 1026.7 |
| 20260509063029 | 52 | 187 | 2.6 | 7.8 | 0.00 | 0.00 | 0.00 | 32 | 1026.7 |
| 20260509062024 | 51 | 184 | 2.6 | 6.1 | 0.00 | 0.00 | 0.00 | 32 | 1026.6 |
| 20260509061024 | 51 | 200 | 2.6 | 11.3 | 0.00 | 0.00 | 0.00 | 33 | 1026.7 |
| 20260509060034 | 51 | 188 | 1.7 | 5.2 | 0.00 | 0.00 | 0.00 | 36 | 1026.7 |
| 20260509055130 | 51 | 164 | 0.9 | 2.6 | 0.00 | 0.00 | 0.00 | 38 | 1026.6 |
| 20260509054047 | 50 | 188 | 0.9 | 1.7 | 0.00 | 0.00 | 0.00 | 37 | 1026.8 |
| 20260509053021 | 49 | 185 | 0.0 | 1.7 | 0.00 | 0.00 | 0.00 | 39 | 1026.7 |
| 20260509052017 | 49 | 153 | 0.9 | 2.6 | 0.00 | 0.00 | 0.00 | 43 | 1026.9 |
| 20260509051052 | 49 | 173 | 0.0 | 0.9 | 0.00 | 0.00 | 0.00 | 43 | 1026.8 |
| 20260509050028 | 47 | 179 | 0.0 | 0.9 | 0.00 | 0.00 | 0.00 | 45 | 1026.7 |
| 20260509045042 | 45 | 171 | 0.9 | 1.7 | 0.00 | 0.00 | 0.00 | 49 | 1026.7 |
| 20260509044018 | 43 | 171 | 0.9 | 2.6 | 0.00 | 0.00 | 0.00 | 56 | 1026.7 |
| 20260509043033 | 41 | 165 | 0.9 | 1.7 | 0.00 | 0.00 | 0.00 | 59 | 1026.7 |
| 20260509042028 | 38 | 158 | 0.0 | 2.6 | 0.00 | 0.00 | 0.00 | 72 | 1026.7 |
| 20260509041024 | 39 | 0.0 | 0.0 | 0.00 | 0.00 | 0.00 | 75 | 1026.5 | |
| 20260509040020 | 38 | 0.0 | 0.0 | 0.00 | 0.00 | 0.00 | 75 | 1026.5 | |
| 20260509035034 | 35 | 0.0 | 0.0 | 0.00 | 0.00 | 0.00 | 79 | 1026.5 | |
| 20260509034030 | 34 | 183 | 0.0 | 0.9 | 0.00 | 0.00 | 0.00 | 81 | 1026.5 |
| 20260509033025 | 33 | 0.0 | 0.0 | 0.00 | 0.00 | 0.00 | 84 | 1026.7 | |
| 20260509032040 | 33 | 0.0 | 0.0 | 0.00 | 0.00 | 0.00 | 82 | 1026.6 | |
| 20260509031015 | 34 | 0.0 | 0.0 | 0.00 | 0.00 | 0.00 | 82 | 1026.6 | |
| 20260509030030 | 34 | 0.0 | 0.0 | 0.00 | 0.00 | 0.00 | 81 | 1026.6 | |
| 20260509025026 | 34 | 0.0 | 0.0 | 0.00 | 0.00 | 0.00 | 80 | 1026.7 | |
| 20260509024021 | 35 | 0.0 | 0.0 | 0.00 | 0.00 | 0.00 | 80 | 1026.6 | |
| 20260509023016 | 35 | 0.0 | 0.0 | 0.00 | 0.00 | 0.00 | 78 | 1026.7 | |
| 20260509022051 | 35 | 0.0 | 0.0 | 0.00 | 0.00 | 0.00 | 79 | 1026.7 | |
| 20260509021026 | 36 | 0.0 | 0.0 | 0.00 | 0.00 | 0.00 | 75 | 1026.8 | |
| 20260509020022 | 37 | 176 | 0.0 | 0.9 | 0.00 | 0.00 | 0.00 | 73 | 1026.8 |
| 20260509015016 | 37 | 0.0 | 0.0 | 0.00 | 0.00 | 0.00 | 73 | 1026.8 | |
| 20260509014031 | 37 | 0.0 | 0.0 | 0.00 | 0.00 | 0.00 | 75 | 1026.9 | |
| 20260509013026 | 38 | 0.0 | 0.0 | 0.00 | 0.00 | 0.00 | 75 | 1026.9 | |
| 20260509012022 | 39 | 179 | 0.0 | 0.9 | 0.00 | 0.00 | 0.00 | 70 | 1026.9 |
| 20260509011017 | 39 | 171 | 0.0 | 0.9 | 0.00 | 0.00 | 0.00 | 67 | 1026.9 |
| 20260509010033 | 38 | 146 | 0.0 | 1.7 | 0.00 | 0.00 | 0.00 | 67 | 1026.9 |
| 20260509005027 | 39 | 0.0 | 0.0 | 0.00 | 0.00 | 0.00 | 65 | 1027.0 | |
| 20260509004023 | 40 | 169 | 0.0 | 0.9 | 0.00 | 0.00 | 0.00 | 61 | 1027.0 |
| 20260509003018 | 41 | 171 | 0.0 | 0.9 | 0.00 | 0.00 | 0.00 | 58 | 1027.0 |
| 20260509002033 | 41 | 0.0 | 0.0 | 0.00 | 0.00 | 0.00 | 56 | 1027.0 | |
| 20260509001029 | 40 | 0.0 | 0.0 | 0.00 | 0.00 | 0.00 | 60 | 1027.0 | |
| 20260509000023 | 40 | 177 | 0.0 | 0.9 | 0.00 | 0.00 | 0.00 | 61 | 1027.1 |
| 20260508235019 | 41 | 176 | 0.0 | 0.9 | 0.00 | 0.00 | 0.00 | 59 | 1027.0 |
| 20260508234034 | 41 | 0.0 | 0.0 | 0.00 | 0.00 | 0.00 | 60 | 1027.1 | |
| 20260508233030 | 42 | 0.0 | 0.0 | 0.00 | 0.00 | 0.00 | 57 | 1027.1 | |
| 20260508232045 | 43 | 170 | 0.0 | 0.9 | 0.00 | 0.00 | 0.00 | 56 | 1026.9 |
| 20260508231020 | 43 | 172 | 0.0 | 0.9 | 0.00 | 0.00 | 0.00 | 55 | 1026.9 |
| 20260508230017 | 44 | 164 | 0.0 | 0.9 | 0.00 | 0.00 | 0.00 | 52 | 1026.9 |
| 20260508225052 | 45 | 166 | 0.0 | 0.9 | 0.00 | 0.00 | 0.00 | 52 | 1026.7 |
| 20260508224027 | 45 | 173 | 0.0 | 0.9 | 0.00 | 0.00 | 0.00 | 51 | 1026.9 |
| 20260508223022 | 45 | 185 | 0.0 | 0.9 | 0.00 | 0.00 | 0.00 | 50 | 1026.9 |
| 20260508222017 | 46 | 186 | 0.0 | 1.7 | 0.00 | 0.00 | 0.00 | 50 | 1026.8 |
| 20260508221032 | 46 | 196 | 0.0 | 2.6 | 0.00 | 0.00 | 0.00 | 50 | 1026.8 |
| 20260508220028 | 47 | 179 | 0.9 | 5.2 | 0.00 | 0.00 | 0.00 | 49 | 1026.7 |
| 20260508215044 | 47 | 185 | 0.9 | 2.6 | 0.00 | 0.00 | 0.00 | 49 | 1026.8 |
| 20260508214018 | 47 | 183 | 0.9 | 2.6 | 0.00 | 0.00 | 0.00 | 49 | 1026.6 |
| 20260508213034 | 48 | 182 | 0.0 | 1.7 | 0.00 | 0.00 | 0.00 | 48 | 1026.6 |
| 20260508212029 | 48 | 184 | 0.9 | 3.5 | 0.00 | 0.00 | 0.00 | 47 | 1026.4 |
| 20260508211025 | 49 | 193 | 0.9 | 1.7 | 0.00 | 0.00 | 0.00 | 48 | 1026.4 |
| 20260508210020 | 49 | 193 | 0.9 | 3.5 | 0.00 | 0.00 | 0.00 | 46 | 1026.3 |
| 20260508205023 | 50 | 186 | 0.9 | 3.5 | 0.00 | 0.00 | 0.00 | 46 | 1026.2 |
| 20260508204031 | 50 | 172 | 0.9 | 6.1 | 0.00 | 0.00 | 0.00 | 46 | 1026.2 |
| 20260508203027 | 50 | 190 | 1.7 | 6.1 | 0.00 | 0.00 | 0.00 | 45 | 1026.1 |
| 20260508202022 | 51 | 194 | 0.9 | 2.6 | 0.00 | 0.00 | 0.00 | 46 | 1025.9 |
| 20260508201016 | 51 | 185 | 0.9 | 3.5 | 0.00 | 0.00 | 0.00 | 45 | 1025.9 |
| 20260508200032 | 52 | 177 | 1.7 | 5.2 | 0.00 | 0.00 | 0.00 | 44 | 1025.7 |
| 20260508195027 | 52 | 185 | 1.7 | 3.5 | 0.00 | 0.00 | 0.00 | 43 | 1025.7 |
| 20260508194042 | 53 | 186 | 1.7 | 5.2 | 0.00 | 0.00 | 0.00 | 43 | 1025.4 |
| 20260508193017 | 53 | 188 | 1.7 | 3.5 | 0.00 | 0.00 | 0.00 | 43 | 1025.3 |
| 20260508192032 | 53 | 196 | 1.7 | 5.2 | 0.00 | 0.00 | 0.00 | 42 | 1025.2 |
| 20260508191048 | 53 | 196 | 0.9 | 3.5 | 0.00 | 0.00 | 0.00 | 43 | 1025.1 |
| 20260508190022 | 54 | 175 | 0.9 | 2.6 | 0.00 | 0.00 | 0.00 | 42 | 1025.0 |
| 20260508185039 | 54 | 185 | 0.9 | 2.6 | 0.00 | 0.00 | 0.00 | 42 | 1024.9 |
| 20260508184033 | 55 | 198 | 0.9 | 3.5 | 0.00 | 0.00 | 0.00 | 40 | 1024.9 |
| 20260508183028 | 56 | 190 | 1.7 | 2.6 | 0.00 | 0.00 | 0.00 | 39 | 1024.8 |
| 20260508182023 | 57 | 185 | 0.9 | 5.2 | 0.00 | 0.00 | 0.00 | 39 | 1024.7 |
| 20260508181018 | 57 | 197 | 2.6 | 6.1 | 0.00 | 0.00 | 0.00 | 36 | 1024.7 |
| 20260508180033 | 58 | 195 | 1.7 | 3.5 | 0.00 | 0.00 | 0.00 | 38 | 1024.5 |
| 20260508175048 | 58 | 179 | 1.7 | 7.0 | 0.00 | 0.00 | 0.00 | 37 | 1024.3 |
| 20260508174024 | 58 | 185 | 1.7 | 6.1 | 0.00 | 0.00 | 0.00 | 37 | 1024.3 |
| 20260508173018 | 59 | 192 | 1.7 | 6.1 | 0.00 | 0.00 | 0.00 | 36 | 1024.2 |
| 20260508172034 | 59 | 185 | 3.5 | 7.0 | 0.00 | 0.00 | 0.00 | 35 | 1024.1 |
| 20260508171030 | 60 | 185 | 1.7 | 6.1 | 0.00 | 0.00 | 0.00 | 35 | 1024.0 |
| 20260508170025 | 61 | 195 | 3.5 | 13.0 | 0.00 | 0.00 | 0.00 | 34 | 1024.1 |
| 20260508165020 | 60 | 196 | 1.7 | 6.1 | 0.00 | 0.00 | 0.00 | 35 | 1023.9 |
| 20260508164035 | 61 | 183 | 0.9 | 2.6 | 0.00 | 0.00 | 0.00 | 34 | 1023.9 |
| 20260508163030 | 61 | 178 | 2.6 | 7.0 | 0.00 | 0.00 | 0.00 | 34 | 1024.0 |
| 20260508162025 | 62 | 180 | 1.7 | 5.2 | 0.00 | 0.00 | 0.00 | 33 | 1023.9 |
| 20260508161020 | 61 | 188 | 1.7 | 5.2 | 0.00 | 0.00 | 0.00 | 33 | 1024.0 |
| 20260508160015 | 63 | 193 | 3.5 | 8.7 | 0.00 | 0.00 | 0.00 | 32 | 1024.0 |
| 20260508155031 | 61 | 191 | 1.7 | 6.1 | 0.00 | 0.00 | 0.00 | 33 | 1024.0 |
| 20260508154026 | 61 | 184 | 1.7 | 6.1 | 0.00 | 0.00 | 0.00 | 34 | 1024.0 |
| 20260508153021 | 62 | 198 | 3.5 | 7.0 | 0.00 | 0.00 | 0.00 | 32 | 1024.0 |
| 20260508152016 | 61 | 184 | 2.6 | 5.2 | 0.00 | 0.00 | 0.00 | 32 | 1024.2 |
| 20260508151033 | 61 | 207 | 2.6 | 6.1 | 0.00 | 0.00 | 0.00 | 32 | 1024.1 |
| 20260508150027 | 62 | 212 | 2.6 | 7.8 | 0.00 | 0.00 | 0.00 | 32 | 1024.1 |
| 20260508145022 | 63 | 187 | 2.6 | 6.1 | 0.00 | 0.00 | 0.00 | 32 | 1024.1 |
| 20260508144017 | 63 | 206 | 3.5 | 6.1 | 0.00 | 0.00 | 0.00 | 32 | 1024.3 |
| 20260508143033 | 62 | 209 | 2.6 | 7.0 | 0.00 | 0.00 | 0.00 | 32 | 1024.2 |
| 20260508142029 | 63 | 197 | 2.6 | 6.1 | 0.00 | 0.00 | 0.00 | 33 | 1024.4 |
| 20260508141023 | 63 | 209 | 2.6 | 7.8 | 0.00 | 0.00 | 0.00 | 32 | 1024.4 |
| 20260508140019 | 63 | 200 | 1.7 | 7.0 | 0.00 | 0.00 | 0.00 | 33 | 1024.4 |
| 20260508135054 | 61 | 195 | 3.5 | 7.8 | 0.00 | 0.00 | 0.00 | 33 | 1024.3 |
| 20260508134030 | 62 | 192 | 2.6 | 5.2 | 0.00 | 0.00 | 0.00 | 33 | 1024.5 |
| 20260508133025 | 63 | 202 | 3.5 | 7.8 | 0.00 | 0.00 | 0.00 | 33 | 1024.5 |
| 20260508132020 | 63 | 199 | 2.6 | 5.2 | 0.00 | 0.00 | 0.00 | 32 | 1024.6 |
| 20260508131035 | 62 | 196 | 3.5 | 7.8 | 0.00 | 0.00 | 0.00 | 32 | 1024.7 |
| 20260508130030 | 64 | 177 | 1.7 | 5.2 | 0.00 | 0.00 | 0.00 | 31 | 1024.6 |
| 20260508125105 | 63 | 173 | 2.6 | 6.1 | 0.00 | 0.00 | 0.00 | 32 | 1024.8 |
| 20260508124020 | 63 | 185 | 2.6 | 5.2 | 0.00 | 0.00 | 0.00 | 31 | 1024.8 |
| 20260508123016 | 63 | 204 | 3.5 | 9.6 | 0.00 | 0.00 | 0.00 | 31 | 1024.9 |
| 20260508122032 | 63 | 196 | 2.6 | 5.2 | 0.00 | 0.00 | 0.00 | 33 | 1024.8 |